TimeMST,TemperatureF,Dew PointF,Humidity,Sea Level PressureIn,VisibilityMPH,Wind Direction,Wind SpeedMPH,Gust SpeedMPH,PrecipitationIn,Events,Conditions,WindDirDegrees,DateUTC
12:09 AM,23.0,21.2,93,29.66,0.5,NE,4.6,-,0.01,Fog-Snow,Snow,40,2012-11-09 07:09:00
12:38 AM,23.0,21.2,93,29.65,1.0,Calm,Calm,-,0.02,Snow,Light Snow,0,2012-11-09 07:38:00
12:46 AM,23.0,21.2,93,29.65,0.8,Calm,Calm,-,0.03,Snow,Light Snow,0,2012-11-09 07:46:00
12:53 AM,23.0,21.9,96,29.76,1.0,Calm,Calm,-,0.03,Snow,Light Snow,0,2012-11-09 07:53:00
1:41 AM,23.0,21.2,93,29.64,0.8,WNW,4.6,-,0.01,Snow,Light Snow,300,2012-11-09 08:41:00
1:53 AM,21.9,19.9,92,29.75,1.0,NW,6.9,-,0.01,Snow,Light Snow,310,2012-11-09 08:53:00
2:06 AM,23.0,19.4,86,29.65,2.0,Calm,Calm,-,0.00,Snow,Light Snow,0,2012-11-09 09:06:00
2:39 AM,21.2,19.4,93,29.62,5.0,NW,9.2,-,0.00,Snow,Light Snow,320,2012-11-09 09:39:00
2:53 AM,21.9,19.0,89,29.75,8.0,WNW,9.2,-,0.00,,Overcast,300,2012-11-09 09:53:00
3:10 AM,21.2,19.4,93,29.64,1.8,North,6.9,-,0.00,Snow,Light Snow,10,2012-11-09 10:10:00
3:23 AM,21.2,19.4,93,29.64,0.8,NNW,5.8,-,0.01,Snow,Light Snow,340,2012-11-09 10:23:00
3:47 AM,21.2,19.4,93,29.64,0.5,NW,3.5,-,0.02,Fog-Snow,Snow,320,2012-11-09 10:47:00
3:48 AM,21.9,19.9,92,29.76,0.5,NNW,3.5,-,0.02,Fog-Snow,Snow,330,2012-11-09 10:48:00
4:53 AM,21.9,19.9,92,29.75,0.8,North,4.6,-,0.04,Snow,Light Snow,350,2012-11-09 11:53:00
5:11 AM,21.2,19.4,93,29.67,0.8,Calm,Calm,-,0.01,Snow,Light Snow,0,2012-11-09 12:11:00
5:53 AM,21.9,19.9,92,29.78,1.0,Calm,Calm,-,0.02,Snow,Light Snow,0,2012-11-09 12:53:00
6:09 AM,21.2,19.4,93,29.66,0.8,SSE,4.6,-,0.01,Snow,Light Snow,150,2012-11-09 13:09:00
6:27 AM,21.2,19.4,93,29.64,1.0,ESE,3.5,-,0.01,Snow,Light Snow,120,2012-11-09 13:27:00
6:41 AM,21.2,19.4,93,29.64,0.8,Calm,Calm,-,0.02,Snow,Light Snow,0,2012-11-09 13:41:00
6:53 AM,21.9,19.9,92,29.76,0.8,Calm,Calm,-,0.02,Snow,Light Snow,0,2012-11-09 13:53:00
7:19 AM,21.2,19.4,93,29.65,1.0,Calm,Calm,-,0.01,Snow,Light Snow,0,2012-11-09 14:19:00
7:39 AM,21.2,19.4,93,29.65,0.8,Calm,Calm,-,0.02,Snow,Light Snow,0,2012-11-09 14:39:00
7:53 AM,23.0,19.9,88,29.76,0.5,North,4.6,-,0.02,Fog-Snow,Light Snow,10,2012-11-09 14:53:00
8:07 AM,21.2,19.4,93,29.65,0.2,Calm,Calm,-,0.01,Fog-Snow,Snow,0,2012-11-09 15:07:00
8:34 AM,21.2,19.4,93,29.66,0.5,NW,4.6,-,0.02,Fog-Snow,Light Snow,320,2012-11-09 15:34:00
8:53 AM,21.9,19.9,92,29.79,0.8,NNW,3.5,-,0.02,Snow,Light Snow,340,2012-11-09 15:53:00
9:53 AM,21.9,19.0,89,29.80,0.5,WNW,5.8,-,0.02,Fog-Snow,Light Snow,300,2012-11-09 16:53:00
10:25 AM,21.2,17.6,86,29.65,1.5,WNW,6.9,-,0.00,Snow,Light Snow,300,2012-11-09 17:25:00
10:32 AM,21.2,17.6,86,29.65,3.0,WNW,9.2,-,0.00,Snow,Light Snow,300,2012-11-09 17:32:00
10:53 AM,19.9,16.0,85,29.81,7.0,WNW,6.9,-,0.00,,Overcast,300,2012-11-09 17:53:00
11:25 AM,17.6,14.0,86,29.67,4.0,NW,8.1,-,0.00,Snow,Light Snow,310,2012-11-09 18:25:00
11:30 AM,17.6,14.0,86,29.67,1.8,WNW,9.2,-,0.00,Snow,Light Snow,300,2012-11-09 18:30:00
11:49 AM,17.6,12.2,79,29.67,0.8,NW,3.5,-,0.00,Snow,Light Snow,310,2012-11-09 18:49:00
11:53 AM,18.0,12.9,81,29.83,1.0,Variable,4.6,-,0.00,Snow,Light Snow,0,2012-11-09 18:53:00
12:04 PM,17.6,12.2,79,29.67,3.0,Calm,Calm,-,0.00,Snow,Light Snow,0,2012-11-09 19:04:00
12:18 PM,17.6,12.2,79,29.67,1.8,Variable,5.8,-,0.00,Snow,Light Snow,0,2012-11-09 19:18:00
12:27 PM,17.6,12.2,79,29.68,0.5,WNW,9.2,-,0.01,Snow,Snow,290,2012-11-09 19:27:00
12:53 PM,16.0,10.9,81,29.84,0.2,NW,8.1,-,0.01,Snow,Heavy Snow,310,2012-11-09 19:53:00
1:17 PM,15.8,10.4,79,29.68,0.8,Variable,3.5,-,0.01,Snow,Light Snow,0,2012-11-09 20:17:00
1:24 PM,15.8,10.4,79,29.69,1.2,Variable,3.5,-,0.01,Snow,Light Snow,0,2012-11-09 20:24:00
1:42 PM,15.8,10.4,79,29.68,0.5,North,4.6,-,0.01,Snow,Snow,350,2012-11-09 20:42:00
1:53 PM,15.1,10.9,84,29.86,0.2,NW,6.9,-,0.01,Fog-Snow,Light Snow,310,2012-11-09 20:53:00
2:03 PM,15.8,10.4,79,29.68,0.2,NW,4.6,-,0.00,Fog-Snow,Snow,310,2012-11-09 21:03:00
2:23 PM,15.8,10.4,79,29.68,0.2,WNW,6.9,-,0.02,Fog-Snow,Heavy Snow,300,2012-11-09 21:23:00
2:53 PM,14.0,10.9,88,29.86,0.2,West,3.5,-,0.04,Fog-Snow,Snow,280,2012-11-09 21:53:00
3:41 PM,15.8,10.4,79,29.68,0.2,NW,4.6,-,0.02,Fog-Snow,Snow,320,2012-11-09 22:41:00
3:53 PM,14.0,9.0,80,29.87,0.8,WNW,6.9,-,0.02,Snow,Light Snow,300,2012-11-09 22:53:00
4:53 PM,12.9,9.0,84,29.87,1.0,Calm,Calm,-,0.01,Snow,Light Snow,0,2012-11-09 23:53:00
5:24 PM,12.2,8.6,85,29.70,2.0,ESE,4.6,-,0.00,Snow,Light Snow,120,2012-11-10 00:24:00
5:42 PM,12.2,8.6,85,29.70,1.8,Calm,Calm,-,0.00,Snow,Light Snow,0,2012-11-10 00:42:00
5:53 PM,12.0,9.0,88,29.89,1.5,Calm,Calm,-,0.00,Snow,Light Snow,0,2012-11-10 00:53:00
6:53 PM,10.9,6.1,81,29.91,1.5,Variable,3.5,-,0.00,Snow,Light Snow,0,2012-11-10 01:53:00
7:44 PM,10.4,6.8,85,29.73,1.0,NW,6.9,-,0.00,Snow,Light Snow,310,2012-11-10 02:44:00
7:46 PM,10.4,6.8,85,29.74,0.8,WNW,8.1,-,0.00,Snow,Light Snow,300,2012-11-10 02:46:00
7:53 PM,10.0,6.1,84,29.92,1.0,Variable,5.8,-,0.00,Snow,Light Snow,0,2012-11-10 02:53:00
8:22 PM,10.4,6.8,85,29.74,0.8,West,4.6,-,0.01,Snow,Light Snow,270,2012-11-10 03:22:00
8:28 PM,10.4,6.8,85,29.74,1.0,West,6.9,-,0.01,Snow,Light Snow,280,2012-11-10 03:28:00
8:53 PM,9.0,5.0,84,29.94,1.2,WNW,5.8,-,0.01,Snow,Light Snow,290,2012-11-10 03:53:00
9:40 PM,8.6,3.2,79,29.75,1.8,NW,5.8,19.6,0.00,Snow,Light Snow,310,2012-11-10 04:40:00
9:53 PM,8.1,3.9,83,29.95,2.0,NW,6.9,-,0.00,Snow,Light Snow,320,2012-11-10 04:53:00
10:06 PM,8.6,3.2,79,29.75,1.2,Variable,4.6,-,0.00,Snow,Light Snow,0,2012-11-10 05:06:00
10:30 PM,8.6,3.2,79,29.75,2.0,West,6.9,-,0.00,Snow,Light Snow,270,2012-11-10 05:30:00
10:53 PM,7.0,3.0,84,29.96,4.0,NW,6.9,-,0.00,Snow,Light Snow,310,2012-11-10 05:53:00
11:48 PM,6.8,3.2,85,29.76,2.5,ESE,3.5,-,0.00,Snow,Light Snow,110,2012-11-10 06:48:00
11:53 PM,7.0,3.0,84,29.98,1.2,East,3.5,-,0.00,Snow,Light Snow,100,2012-11-10 06:53:00